Location: Unspecified
(49.9820°N, 20.4363°E)
Time: 17:06:09
(UTC+02:00)

ARIANE 6 FM1 Upper Stage - Visible Passes

Search period start: 13 July 2025 00:00
Search period end: 23 July 2025 00:00
Orbit: 529 x 612 km, 62.0° (Epoch: 12 July)

Date Brightness Start Highest point End Pass type
(mag) Time Alt. Az. Time Alt. Az. Time Alt. Az.
18 Jul 4.9 02:36:17 10° SSE 02:38:22 14° ESE 02:40:27 10° E visible
19 Jul 4.4 02:37:45 14° SSE 02:39:43 20° ESE 02:42:41 10° ENE visible
20 Jul 3.9 02:39:16 20° SSE 02:41:06 29° ESE 02:44:35 10° ENE visible
21 Jul 3.3 02:40:44 25° S 02:42:33 41° SE 02:46:20 10° ENE visible
22 Jul 2.7 02:42:09 29° SSW 02:44:01 61° SE 02:47:58 10° NE visible
